Wind_Speed
29 26 26 24 22 24 25 22 24 24 23 25 22 22 21 20 18 14 15 14 15 13 14 14 13 14 13 13 13 12 12 11 11 12 11 10 11 11 11 11 12 12 13
31 30 29 28 23 26 28 27 25 27 27 27 24 24 22 22 21 17 15 14 13 15 15 14 15 13 12 12 12 14 14 13 12 10 9 10 10 10 11 11 12 12 12
34 31 31 30 25 29 28 28 25 28 30 27 25 23 23 23 20 18 18 16 15 13 15 15 14 12 14 15 13 12 11 10 10 9 9 10 10 10 10 10 10 10 11
35 35 34 37 27 33 30 32 30 29 29 28 26 24 24 22 21 19 17 16 17 15 15 17 15 14 13 10 9 9 8 9 10 10 10 10 10 9 9 10 10 10 10
35 36 37 40 34 37 33 35 35 34 24 25 25 24 24 23 22 20 18 17 17 18 18 16 15 14 11 11 10 10 9 9 9 10 10 9 9 8 8 8 9 9 10
32 36 28 32 38 36 35 36 38 36 33 24 21 23 22 22 21 20 18 18 18 18 17 17 17 14 13 11 10 10 9 9 9 9 9 8 8 8 7 8 8 8 9
32 35 33 23 31 33 36 41 36 37 26 29 23 14 15 16 18 18 18 19 18 17 18 17 16 15 13 12 10 10 10 9 8 8 8 8 7 7 7 7 7 8 8
32 33 35 30 34 25 31 30 32 27 23 36 20 13 3 3 11 16 18 19 19 19 19 18 16 14 11 12 12 11 9 9 8 7 7 6 6 6 6 7 7 8 8
30 32 34 33 34 37 33 38 25 30 23 32 29 11 4 4 7 10 16 18 19 19 18 18 16 14 13 13 12 12 11 8 7 6 5 5 5 5 5 6 6 6 7
27 29 30 32 37 41 42 40 38 31 25 31 29 20 19 15 5 4 8 16 18 19 20 19 18 16 14 13 12 11 10 9 7 5 4 3 3 4 5 5 5 6 6
23 27 29 31 35 36 43 47 44 33 30 30 31 23 15 11 11 5 5 10 14 19 20 20 19 17 15 13 12 11 11 9 7 5 4 3 2 2 3 4 5 5 6
26 28 31 31 34 35 41 44 47 48 36 32 35 29 21 12 11 6 3 10 17 12 21 21 20 19 17 15 13 12 11 9 7 5 3 3 3 2 1 3 3 4 5
20 24 29 35 39 38 36 43 45 45 47 40 37 34 31 29 25 14 8 8 6 5 12 22 23 22 20 18 16 14 11 9 7 5 4 4 4 3 1 2 3 4 4
21 21 22 32 37 37 38 40 42 44 46 46 40 36 34 34 28 26 14 15 3 3 7 7 26 25 23 21 19 16 13 10 8 5 5 5 5 4 2 2 3 4 4
24 24 26 30 37 38 40 36 40 40 40 45 44 42 39 39 32 28 22 28 14 6 9 14 13 30 26 24 21 18 15 11 8 6 6 7 6 5 4 4 4 4 6
26 27 28 33 36 39 41 40 37 39 39 39 41 42 40 38 37 32 27 25 18 13 5 12 22 22 31 27 23 19 16 12 9 7 7 7 6 6 5 4 5 5 6
29 31 31 33 37 39 42 41 36 37 38 38 38 40 42 44 42 35 30 26 22 17 7 8 19 18 29 28 25 21 17 13 11 9 8 6 7 6 5 4 5 6 8
30 31 32 34 35 39 39 40 37 32 36 35 37 40 40 42 41 39 34 30 28 23 12 11 17 20 22 28 26 22 18 15 12 10 9 9 9 7 5 6 8 8 9
26 32 33 32 33 36 39 36 36 35 35 37 39 40 39 41 40 40 37 33 31 28 22 16 12 20 17 28 26 22 18 15 12 11 11 10 9 8 8 8 10 11 12
23 29 34 35 35 35 38 38 37 32 34 37 41 40 38 41 40 43 40 37 35 31 24 19 14 17 17 25 25 21 17 16 14 13 12 10 10 8 8 10 12 12 11
22 27 30 32 31 33 35 34 34 34 31 33 33 35 38 39 41 44 43 40 36 31 26 22 14 12 16 20 25 20 13 14 14 14 12 12 10 9 10 11 11 9 11
14 22 26 29 31 31 33 33 26 29 30 26 29 28 31 34 36 39 41 41 40 37 28 20 16 18 20 21 22 23 17 9 6 13 11 8 9 10 10 10 10 13 8
16 14 24 24 30 31 33 29 27 25 32 29 26 30 28 27 29 30 31 31 29 29 32 33 31 26 25 31 30 22 20 13 8 9 9 6 9 8 9 10 13 8 3
19 12 17 23 25 31 35 36 31 30 25 25 29 30 30 29 29 29 26 24 23 24 23 25 28 27 25 27 25 20 19 15 10 9 8 5 6 8 9 12 5 1 1
20 10 10 14 19 22 32 35 30 23 26 26 27 29 29 29 29 31 32 31 26 22 18 18 21 22 17 19 18 19 19 14 5 5 9 4 3 7 12 8 3 7 11
18 11 7 7 11 16 26 35 30 30 27 28 27 27 30 31 33 33 36 39 34 30 30 26 22 19 18 17 16 13 14 12 6 4 7 5 2 2 5 5 4 9 14
Wind_Direction
189 194 187 182 183 191 189 189 182 183 175 178 177 177 167 164 160 155 164 157 152 152 143 140 136 133 130 125 126 120 115 106 102 91 78 82 70 65 61 61 49 43 43
197 193 192 188 186 195 189 196 188 183 184 181 177 174 171 167 162 160 166 167 157 153 147 144 141 137 137 132 135 125 110 96 93 91 84 81 80 73 68 61 56 55 49
202 197 196 192 188 194 194 190 189 180 179 176 175 174 171 168 168 167 176 169 163 158 161 148 141 156 158 124 112 107 102 95 91 89 86 82 79 76 68 58 51 50 50
207 203 199 195 189 193 196 186 186 178 176 176 173 172 172 172 169 172 174 172 170 162 158 153 156 126 119 113 122 119 114 104 103 98 93 89 85 76 65 62 56 53 47
215 207 202 199 191 193 194 190 186 184 175 173 173 172 172 172 174 174 182 179 175 168 162 156 155 149 144 127 128 121 118 111 107 104 102 97 91 84 73 62 57 48 42
219 213 202 197 193 187 188 194 188 184 183 170 162 167 170 172 176 180 183 182 181 175 172 177 168 164 144 134 132 128 122 116 110 105 100 95 87 78 67 58 51 46 39
220 217 213 205 193 193 184 196 184 178 167 168 149 140 161 174 179 183 185 183 180 179 177 183 185 180 168 148 138 138 133 127 120 115 107 99 89 73 57 51 46 40 36
220 220 211 203 202 192 180 185 182 169 172 174 169 141 144 163 194 192 190 190 187 184 181 188 188 192 186 172 155 145 140 136 130 121 113 98 79 64 54 42 33 28 27
223 220 214 205 193 188 180 184 190 185 175 180 174 162 150 187 146 202 201 198 196 193 190 194 196 197 191 184 177 169 155 137 129 126 119 106 82 58 44 36 28 23 18
214 214 216 207 187 189 189 194 195 193 189 184 182 194 189 144 171 169 205 206 203 200 199 196 195 194 192 188 180 175 169 153 134 129 126 123 101 57 36 30 22 13 8
207 209 211 209 197 188 190 191 190 198 196 193 188 189 176 171 156 144 173 183 204 204 203 202 200 198 196 191 184 179 175 160 148 142 136 158 153 89 33 17 13 5 357
230 226 223 220 207 197 199 197 197 192 198 197 197 194 182 173 177 153 124 178 193 204 209 207 206 204 201 196 192 188 186 185 178 165 152 169 182 168 24 5 357 350 347
217 219 220 221 215 206 201 201 201 198 193 198 199 200 197 194 186 171 134 157 177 175 204 213 211 208 204 199 197 196 195 193 191 194 177 178 187 188 227 333 335 331 336
213 224 225 224 222 216 212 206 201 199 198 194 199 201 198 200 199 191 167 154 136 161 191 192 208 210 208 204 204 200 200 203 207 215 209 183 199 238 269 303 323 326 328
236 227 231 226 223 219 215 207 204 202 205 194 198 196 200 202 206 203 195 181 148 178 206 203 191 211 209 206 206 206 205 207 218 222 219 213 229 236 252 265 299 311 311
243 238 227 224 223 221 220 216 206 203 202 200 191 195 199 205 207 205 203 196 200 173 177 194 201 202 204 205 205 206 208 212 219 222 222 218 228 238 244 263 277 297 317
246 238 234 229 223 216 214 208 211 198 201 195 190 193 197 205 205 204 205 203 200 193 144 183 201 200 199 202 200 201 206 213 218 217 218 220 234 249 256 258 268 290 310
245 234 230 226 219 215 209 206 204 195 194 194 191 192 199 204 204 205 204 205 206 204 183 158 185 188 197 198 200 201 203 211 215 217 221 226 241 257 249 249 277 301 298
244 242 234 231 215 212 210 206 198 196 193 193 195 193 199 202 202 204 206 207 207 205 206 182 162 185 185 191 190 197 201 210 216 218 227 241 254 255 261 275 286 288 297
254 246 240 234 221 211 208 206 204 201 196 198 202 203 205 207 204 207 206 210 208 204 203 186 173 171 176 185 191 190 196 206 214 219 230 245 248 257 274 284 286 293 300
257 248 242 226 213 206 202 198 198 203 203 197 204 207 211 219 219 217 210 210 208 202 197 183 167 161 171 174 189 194 192 203 212 221 233 241 244 258 277 278 283 292 304
303 250 238 223 203 200 205 200 205 204 210 210 203 210 216 220 219 219 218 221 216 205 188 176 176 171 183 184 183 188 188 175 199 226 220 218 233 264 272 278 286 299 296
326 269 246 219 204 200 202 202 207 218 211 202 204 212 209 213 214 213 215 219 218 215 220 206 189 185 179 191 186 185 190 190 179 177 191 237 238 262 271 284 301 295 272
335 291 253 228 208 205 207 202 213 215 211 207 207 207 207 200 203 200 195 188 189 195 202 205 206 197 191 182 188 199 197 179 165 187 205 229 238 273 280 301 289 157 351
332 315 266 244 228 211 207 201 211 217 205 200 202 202 200 197 194 196 182 170 164 158 169 174 167 167 171 182 190 180 169 159 159 185 199 212 233 303 306 294 222 205 326
325 320 304 259 235 220 206 207 221 212 193 189 195 200 202 194 189 190 180 164 147 150 151 148 147 147 156 163 171 183 178 177 143 152 206 191 177 346 310 298 223 289 322
Height
799 806 810 814 817 819 823 827 831 834 838 842 844 847 849 852 854 856 858 860 862 863 864 866 867 869 870 871 872 873 874 874 874 874 873 873 874 874 874 874 873 872 870
794 800 807 811 814 816 820 825 829 833 837 840 843 846 848 851 853 856 858 860 862 863 865 866 869 870 872 872 873 874 874 875 875 876 875 875 876 875 875 874 874 873 872
791 794 801 806 810 813 817 822 827 832 835 839 842 845 848 851 853 856 858 860 862 864 866 867 869 871 872 873 874 875 876 875 876 876 876 876 877 877 876 876 875 873 872
788 791 795 801 806 810 814 818 823 830 833 838 841 845 848 851 853 856 858 860 862 864 866 867 870 870 871 874 876 876 877 876 876 876 877 877 878 878 877 876 875 874 873
783 787 789 794 800 804 809 814 819 825 832 835 840 844 848 851 854 856 858 860 862 864 865 867 868 870 871 875 876 876 877 878 877 877 877 877 877 877 877 876 875 875 874
778 783 787 791 793 798 804 810 815 820 827 833 839 844 848 850 853 856 858 860 861 863 865 866 868 870 873 875 876 876 877 878 879 879 879 878 878 878 878 876 876 875 874
773 778 783 789 793 797 797 805 813 817 824 829 836 845 849 851 853 855 857 859 861 862 864 866 868 870 872 874 876 876 877 878 878 878 879 879 878 879 879 878 877 876 875
769 773 777 782 790 796 797 803 810 817 821 823 830 839 848 853 852 853 855 857 859 861 862 865 867 869 871 873 874 876 877 877 878 878 879 879 879 879 878 878 878 877 876
765 769 773 777 782 788 792 794 809 815 817 820 822 826 841 841 848 851 853 855 857 859 861 863 865 868 869 871 872 874 876 877 878 878 878 879 879 879 878 877 877 876 875
763 766 769 773 778 782 786 789 803 813 817 815 819 821 825 828 837 848 851 853 855 857 859 861 863 865 868 869 870 871 873 875 876 878 878 878 878 878 878 877 876 876 875
760 763 766 770 772 775 779 783 783 805 810 812 812 817 822 826 828 833 840 848 852 854 856 858 861 863 865 868 869 869 871 872 874 875 876 876 876 876 876 876 875 874 874
757 759 763 766 769 770 772 776 781 781 798 803 810 811 813 818 823 826 833 843 846 849 852 855 857 860 862 865 867 868 868 869 871 872 873 874 874 874 874 874 873 872 871
752 754 758 761 763 766 768 771 773 778 778 793 801 804 808 811 816 821 825 835 841 846 849 851 854 856 858 861 863 865 867 868 868 869 870 872 872 871 872 871 871 870 869
746 747 750 755 757 760 763 766 768 771 775 776 789 798 802 806 811 815 818 825 838 842 844 845 848 851 854 857 860 862 864 866 866 867 867 868 870 870 870 870 869 869 868
741 742 743 747 750 753 756 758 760 763 770 766 778 787 795 800 806 810 813 816 821 834 837 839 841 845 850 853 857 859 861 862 864 864 865 865 866 866 867 868 867 867 867
735 736 737 739 744 746 749 752 752 756 763 766 767 777 787 793 800 805 808 811 814 818 825 831 835 838 844 848 852 855 859 860 862 861 862 862 864 864 864 865 865 864 864
728 729 730 731 734 738 737 741 746 747 754 758 761 769 776 785 793 799 803 807 810 814 819 826 830 835 839 844 848 852 854 857 859 859 860 860 861 861 862 861 862 862 860
720 721 722 724 723 728 730 733 737 739 744 751 755 761 770 778 785 791 795 800 805 808 812 819 825 830 835 839 844 848 850 854 856 856 857 858 859 858 858 857 859 857 857
713 713 714 715 716 718 722 727 727 733 739 745 751 755 764 770 777 782 788 794 799 803 807 810 818 824 830 835 839 844 847 851 853 853 855 856 856 855 855 855 855 854 853
708 707 707 707 709 711 714 718 722 728 734 738 744 749 756 762 768 773 780 788 793 797 803 807 813 818 824 830 835 839 843 845 849 850 851 852 853 852 852 852 852 851 849
702 701 701 701 702 704 708 711 717 722 729 734 737 745 751 756 762 766 773 781 787 791 798 802 808 814 819 824 828 833 839 841 844 846 847 848 848 849 849 848 847 845 845
696 695 695 695 696 698 702 708 714 719 724 724 731 739 745 752 758 763 769 775 778 782 790 796 802 807 811 817 822 827 832 837 841 841 843 843 844 845 845 845 843 842 841
694 691 691 691 691 693 698 705 712 718 723 722 727 738 743 747 754 760 766 772 777 780 785 787 793 800 805 808 815 822 825 829 832 835 838 841 841 840 840 841 838 838 838
694 690 689 689 689 690 694 701 711 715 717 721 727 733 738 743 749 754 761 767 773 779 782 786 791 794 801 807 812 816 821 825 827 832 835 839 837 837 836 834 834 836 836
696 693 689 688 689 689 691 697 708 710 713 719 725 729 732 738 744 750 755 762 771 777 782 786 791 799 802 807 810 814 818 821 827 830 831 835 834 834 832 831 830 832 831
696 692 688 688 687 689 690 697 703 707 709 712 718 724 729 732 740 745 751 758 767 773 777 785 793 798 803 806 810 813 815 819 822 828 831 834 832 832 831 829 830 828 826